Flag for Germany Weather past 2 weeks in Königswinter, North Rhine-Westphalia, Germany

50 °F

Light rain. Overcast.

Feels Like: 44 °F
Forecast: 45 / 54 °F
Wind: 14 mph from Southwest

Location: Bonn-Hangelar

Current Time: Nov 29, 2015 at 10:44:36 PM

Latest Report: Nov 29, 2015 at 10:00 PM

Visibility: 3 mi

Pressure: 29.87 "Hg

Humidity: 92%

Dew point: 47 °F

Location of KönigswinterLocation

Historic Weather in Königswinter — Graph


Königswinter temperature yesterday

Maximum temperature yesterday: 42 °F (at 9:00 PM)
Minimum temperature yesterday: 39 °F (at 4:00 AM)
Average temperature yesterday: 40 °F

Past Weeks' High & Low Weather Summary

High59 °F (Nov 17, 10:00 PM)100% (Nov 17, 12:00 AM)30.29 "Hg (Nov 17, 12:00 AM)
Low32 °F (Nov 23, 4:00 AM)72% (Nov 18, 8:00 AM)29.38 "Hg (Nov 21, 1:00 PM)
Average44 °F91%29.89 "Hg
* Reported Nov 14 9:00 PM — Nov 29 9:00 PM, Königswinter, Weather by CustomWeather, © 2015

Note: Actual official high and low records may vary slightly from our data, if they occured in-between our weather recording intervals... More about our weather records


Königswinter weather history for previous 24 hours

Time TempWeatherWind HumidityBarometerVisibility
9:00 PM
Sun, Nov 29
50 °FLight rain. Overcast.16 mph90%29.86 "Hg5 mi
8:00 PM49 °FLight rain. Overcast.16 mph93%29.85 "Hg5 mi
7:00 PM49 °FLight rain. Passing clouds.14 mph94%29.86 "Hg7 mi
6:00 PM50 °FOvercast.15 mph87%29.87 "Hg17 mi
5:00 PM50 °FDrizzle. Overcast.14 mph85%29.85 "Hg14 mi
4:00 PM51 °FOvercast.15 mph84%29.84 "Hg19 mi
3:00 PM50 °FOvercast.14 mph90%29.84 "Hg17 mi
2:00 PM49 °FLight rain. Overcast.14 mph92%29.84 "Hg12 mi
1:00 PM48 °FLight rain. Overcast.13 mph95%29.85 "Hg4 mi
12:00 PM49 °FOvercast.10 mph87%29.87 "Hg14 mi
11:00 AM48 °FOvercast.13 mph89%29.87 "Hg25 mi
10:00 AM47 °FLight rain. Overcast.10 mph94%29.86 "Hg5 mi
9:00 AM46 °FLow clouds.13 mph95%29.85 "Hg31 mi
7:00 AM45 °FLight rain. Overcast.12 mph95%29.84 "Hg9 mi
5:00 AM45 °FOvercast.13 mph92%29.83 "Hg28 mi
4:00 AM43 °FLight rain. Overcast.14 mph96%29.83 "Hg25 mi
3:00 AM42 °FRain. Overcast.15 mph94%29.83 "Hg4 mi
2:00 AM42 °FLight rain. Overcast.16 mph91%29.84 "Hg31 mi
Weather by CustomWeather, © 2015

See weather overviewHow to use our weather pages